| time (UTC) | temp C | wind direction | speed KPH | gust KPH | rain 1hr cm | rain 24hr cm | rain mn cm | humidity % | barometer mb |
| 20260906023959 | 20 | 9 | 0.0 | 0.0 | 0.00 | 0.00 | 0.00 | 63 | 1024.7 |
| 20260906023500 | 20 | 9 | 0.0 | 0.0 | 0.00 | 0.00 | 0.00 | 62 | 1024.8 |
| 20260906022458 | 20 | 9 | 0.0 | 1.6 | 0.00 | 0.00 | 0.00 | 61 | 1024.5 |
| 20260906021959 | 20 | 9 | 0.0 | 0.0 | 0.00 | 0.00 | 0.00 | 61 | 1024.5 |
| 20260906021459 | 20 | 9 | 0.0 | 0.0 | 0.00 | 0.00 | 0.00 | 61 | 1024.6 |
| 20260906020959 | 20 | 9 | 0.0 | 1.6 | 0.00 | 0.00 | 0.00 | 61 | 1024.6 |
| 20260906020459 | 20 | 9 | 0.0 | 1.6 | 0.00 | 0.00 | 0.00 | 61 | 1024.6 |
| 20260906015459 | 20 | 9 | 0.0 | 0.0 | 0.00 | 0.00 | 0.00 | 60 | 1024.5 |
| 20260906015000 | 20 | 9 | 1.6 | 4.8 | 0.00 | 0.00 | 0.00 | 61 | 1024.5 |
| 20260906014459 | 20 | 9 | 3.2 | 4.8 | 0.00 | 0.00 | 0.00 | 60 | 1024.5 |
| 20260906013959 | 20 | 15 | 1.6 | 6.4 | 0.00 | 0.00 | 0.00 | 59 | 1024.5 |
| 20260906012000 | 21 | 9 | 1.6 | 4.8 | 0.00 | 0.00 | 0.00 | 59 | 1024.3 |
| 20260906011459 | 21 | 5 | 1.6 | 4.8 | 0.00 | 0.00 | 0.00 | 58 | 1024.4 |
| 20260906010459 | 21 | 341 | 1.6 | 4.8 | 0.00 | 0.00 | 0.00 | 58 | 1024.5 |
| 20260906010003 | 21 | 349 | 1.6 | 8.0 | 0.00 | 0.00 | 0.00 | 58 | 1024.5 |
| 20260906005500 | 21 | 331 | 3.2 | 8.0 | 0.00 | 0.00 | 0.00 | 57 | 1024.2 |
| 20260906005001 | 21 | 329 | 1.6 | 6.4 | 0.00 | 0.00 | 0.00 | 57 | 1024.2 |
| 20260906004001 | 21 | 21 | 1.6 | 6.4 | 0.00 | 0.00 | 0.00 | 57 | 1024.3 |
| 20260906003501 | 21 | 14 | 1.6 | 6.4 | 0.00 | 0.00 | 0.00 | 56 | 1024.2 |
| 20260906003000 | 21 | 5 | 1.6 | 8.0 | 0.00 | 0.00 | 0.00 | 56 | 1024.2 |
| 20260906002501 | 21 | 360 | 3.2 | 9.7 | 0.00 | 0.00 | 0.00 | 56 | 1024.0 |
| 20260906002000 | 21 | 21 | 3.2 | 9.7 | 0.00 | 0.00 | 0.00 | 56 | 1024.2 |
| 20260906001500 | 21 | 5 | 1.6 | 8.0 | 0.00 | 0.00 | 0.00 | 56 | 1024.1 |
| 20260906001002 | 21 | 355 | 3.2 | 14.5 | 0.00 | 0.00 | 0.00 | 56 | 1024.1 |
| 20260906000501 | 21 | 71 | 3.2 | 14.5 | 0.00 | 0.00 | 0.00 | 56 | 1024.1 |
| 20260905234959 | 21 | 5 | 4.8 | 9.7 | 0.00 | 0.00 | 0.00 | 56 | 1024.0 |
| 20260905234459 | 21 | 18 | 4.8 | 9.7 | 0.00 | 0.00 | 0.00 | 56 | 1024.0 |
| 20260905233959 | 21 | 5 | 4.8 | 12.9 | 0.00 | 0.00 | 0.00 | 57 | 1024.0 |
| 20260905233500 | 21 | 15 | 3.2 | 9.7 | 0.00 | 0.00 | 0.00 | 57 | 1024.0 |
| 20260905232459 | 20 | 344 | 1.6 | 4.8 | 0.00 | 0.00 | 0.00 | 57 | 1023.8 |
| 20260905232000 | 20 | 355 | 0.0 | 3.2 | 0.00 | 0.00 | 0.00 | 58 | 1023.7 |
| 20260905231459 | 20 | 311 | 0.0 | 3.2 | 0.00 | 0.00 | 0.00 | 57 | 1023.7 |
| 20260905230001 | 20 | 345 | 1.6 | 4.8 | 0.00 | 0.00 | 0.00 | 57 | 1023.5 |
| 20260905225502 | 20 | 355 | 1.6 | 6.4 | 0.00 | 0.00 | 0.00 | 57 | 1023.7 |
| 20260905225001 | 20 | 355 | 1.6 | 3.2 | 0.00 | 0.00 | 0.00 | 57 | 1023.7 |
| 20260905224502 | 20 | 350 | 0.0 | 3.2 | 0.00 | 0.00 | 0.00 | 57 | 1023.6 |
| 20260905224001 | 20 | 360 | 0.0 | 1.6 | 0.00 | 0.00 | 0.00 | 57 | 1023.5 |
| 20260905223502 | 20 | 355 | 0.0 | 3.2 | 0.00 | 0.00 | 0.00 | 56 | 1023.4 |
| 20260905223004 | 21 | 360 | 0.0 | 3.2 | 0.00 | 0.00 | 0.00 | 56 | 1023.4 |
| 20260905222501 | 21 | 355 | 0.0 | 1.6 | 0.00 | 0.00 | 0.00 | 55 | 1023.3 |
| 20260905222001 | 21 | 355 | 0.0 | 1.6 | 0.00 | 0.00 | 0.00 | 55 | 1023.3 |
| 20260905221502 | 21 | 355 | 0.0 | 1.6 | 0.00 | 0.00 | 0.00 | 54 | 1023.3 |
| 20260905221003 | 21 | 340 | 1.6 | 3.2 | 0.00 | 0.00 | 0.00 | 54 | 1023.2 |
| 20260905220501 | 21 | 12 | 1.6 | 6.4 | 0.00 | 0.00 | 0.00 | 53 | 1023.2 |
| 20260905220002 | 21 | 360 | 3.2 | 6.4 | 0.00 | 0.00 | 0.00 | 53 | 1023.2 |
| 20260905215502 | 22 | 347 | 1.6 | 6.4 | 0.00 | 0.00 | 0.00 | 53 | 1023.0 |
| 20260905215000 | 22 | 360 | 1.6 | 6.4 | 0.00 | 0.00 | 0.00 | 52 | 1023.0 |
| 20260905214002 | 22 | 346 | 3.2 | 8.0 | 0.00 | 0.00 | 0.00 | 51 | 1022.9 |
| 20260905212002 | 22 | 360 | 4.8 | 9.7 | 0.00 | 0.00 | 0.00 | 50 | 1022.8 |
| 20260905211500 | 23 | 355 | 4.8 | 9.7 | 0.00 | 0.00 | 0.00 | 49 | 1022.8 |
| 20260905211000 | 23 | 12 | 4.8 | 9.7 | 0.00 | 0.00 | 0.00 | 49 | 1022.7 |
| 20260905210502 | 23 | 48 | 4.8 | 12.9 | 0.00 | 0.00 | 0.00 | 49 | 1022.7 |
| 20260905210002 | 23 | 321 | 6.4 | 17.7 | 0.00 | 0.00 | 0.00 | 48 | 1022.6 |
| 20260905205503 | 23 | 20 | 4.8 | 17.7 | 0.00 | 0.00 | 0.00 | 48 | 1022.6 |
| 20260905205001 | 23 | 57 | 4.8 | 17.7 | 0.00 | 0.00 | 0.00 | 47 | 1022.5 |
| 20260905204502 | 23 | 5 | 6.4 | 17.7 | 0.00 | 0.00 | 0.00 | 48 | 1022.5 |
| 20260905204002 | 23 | 13 | 6.4 | 16.1 | 0.00 | 0.00 | 0.00 | 47 | 1022.4 |
| 20260905203501 | 23 | 343 | 6.4 | 16.1 | 0.00 | 0.00 | 0.00 | 47 | 1022.3 |
| 20260905203003 | 23 | 355 | 4.8 | 16.1 | 0.00 | 0.00 | 0.00 | 48 | 1022.3 |
| 20260905202502 | 23 | 13 | 6.4 | 14.5 | 0.00 | 0.00 | 0.00 | 48 | 1022.1 |
| 20260905202002 | 23 | 34 | 6.4 | 16.1 | 0.00 | 0.00 | 0.00 | 48 | 1022.1 |
| 20260905201501 | 23 | 13 | 6.4 | 16.1 | 0.00 | 0.00 | 0.00 | 48 | 1022.1 |
| 20260905201003 | 23 | 350 | 4.8 | 14.5 | 0.00 | 0.00 | 0.00 | 48 | 1022.1 |
| 20260905200504 | 24 | 323 | 6.4 | 14.5 | 0.00 | 0.00 | 0.00 | 47 | 1021.9 |
| 20260905200006 | 24 | 17 | 6.4 | 22.5 | 0.00 | 0.00 | 0.00 | 48 | 1021.8 |
| 20260905195502 | 24 | 332 | 6.4 | 22.5 | 0.00 | 0.00 | 0.00 | 47 | 1021.6 |
| 20260905195002 | 24 | 360 | 6.4 | 19.3 | 0.00 | 0.00 | 0.00 | 47 | 1021.6 |
| 20260905194502 | 24 | 22 | 6.4 | 17.7 | 0.00 | 0.00 | 0.00 | 47 | 1021.5 |
| 20260905194001 | 24 | 15 | 6.4 | 17.7 | 0.00 | 0.00 | 0.00 | 47 | 1021.4 |
| 20260905192501 | 25 | 350 | 8.0 | 22.5 | 0.00 | 0.00 | 0.00 | 48 | 1021.2 |
| 20260905192002 | 25 | 355 | 8.0 | 20.9 | 0.00 | 0.00 | 0.00 | 48 | 1021.2 |
| 20260905191502 | 25 | 355 | 9.7 | 20.9 | 0.00 | 0.00 | 0.00 | 48 | 1021.0 |
| 20260905191001 | 25 | 37 | 8.0 | 20.9 | 0.00 | 0.00 | 0.00 | 48 | 1020.9 |
| 20260905185503 | 25 | 12 | 8.0 | 20.9 | 0.00 | 0.00 | 0.00 | 49 | 1020.6 |
| 20260905185001 | 25 | 63 | 8.0 | 20.9 | 0.00 | 0.00 | 0.00 | 49 | 1020.4 |
| 20260905184502 | 25 | 342 | 8.0 | 20.9 | 0.00 | 0.00 | 0.00 | 49 | 1020.5 |
| 20260905184003 | 26 | 38 | 8.0 | 20.9 | 0.00 | 0.00 | 0.00 | 48 | 1020.3 |
| 20260905183502 | 26 | 355 | 4.8 | 16.1 | 0.00 | 0.00 | 0.00 | 49 | 1020.2 |
| 20260905183002 | 26 | 341 | 4.8 | 16.1 | 0.00 | 0.00 | 0.00 | 48 | 1020.2 |
| 20260905182502 | 26 | 10 | 4.8 | 14.5 | 0.00 | 0.00 | 0.00 | 48 | 1020.1 |
| 20260905182002 | 26 | 9 | 6.4 | 19.3 | 0.00 | 0.00 | 0.00 | 47 | 1020.0 |
| 20260905181502 | 26 | 24 | 6.4 | 19.3 | 0.00 | 0.00 | 0.00 | 47 | 1019.9 |
| 20260905181001 | 26 | 28 | 6.4 | 19.3 | 0.00 | 0.00 | 0.00 | 47 | 1019.7 |
| 20260905180503 | 26 | 66 | 8.0 | 19.3 | 0.00 | 0.00 | 0.00 | 47 | 1019.7 |
| 20260905180002 | 26 | 36 | 8.0 | 19.3 | 0.00 | 0.00 | 0.00 | 47 | 1019.5 |
| 20260905175501 | 26 | 89 | 9.7 | 27.4 | 0.00 | 0.00 | 0.00 | 47 | 1019.4 |
| 20260905175003 | 27 | 86 | 9.7 | 29.0 | 0.00 | 0.00 | 0.00 | 46 | 1019.4 |
| 20260905174501 | 27 | 70 | 9.7 | 29.0 | 0.00 | 0.00 | 0.00 | 46 | 1019.2 |
| 20260905174002 | 27 | 65 | 8.0 | 20.9 | 0.00 | 0.00 | 0.00 | 46 | 1019.1 |
| 20260905173503 | 27 | 309 | 6.4 | 17.7 | 0.00 | 0.00 | 0.00 | 45 | 1019.2 |
| 20260905173003 | 27 | 308 | 8.0 | 16.1 | 0.00 | 0.00 | 0.00 | 45 | 1019.2 |
| 20260905172501 | 27 | 78 | 9.7 | 19.3 | 0.00 | 0.00 | 0.00 | 46 | 1019.0 |
| 20260905172002 | 27 | 118 | 8.0 | 19.3 | 0.00 | 0.00 | 0.00 | 46 | 1018.8 |
| 20260905171500 | 27 | 332 | 8.0 | 20.9 | 0.00 | 0.00 | 0.00 | 46 | 1018.8 |
| 20260905170502 | 28 | 27 | 8.0 | 25.7 | 0.00 | 0.00 | 0.00 | 45 | 1018.5 |
| 20260905165501 | 28 | 62 | 9.7 | 22.5 | 0.00 | 0.00 | 0.00 | 45 | 1018.3 |
| 20260905165001 | 28 | 75 | 12.9 | 32.2 | 0.00 | 0.00 | 0.00 | 45 | 1018.2 |
| 20260905164501 | 28 | 72 | 9.7 | 32.2 | 0.00 | 0.00 | 0.00 | 46 | 1018.0 |
| 20260905163502 | 28 | 55 | 8.0 | 25.7 | 0.00 | 0.00 | 0.00 | 47 | 1018.0 |
| 20260905163002 | 29 | 339 | 8.0 | 25.7 | 0.00 | 0.00 | 0.00 | 47 | 1017.9 |
| 20260905162502 | 29 | 72 | 9.7 | 22.5 | 0.00 | 0.00 | 0.00 | 47 | 1017.9 |
| 20260905162002 | 29 | 97 | 11.3 | 25.7 | 0.00 | 0.00 | 0.00 | 47 | 1018.0 |
| 20260905161502 | 29 | 46 | 9.7 | 25.7 | 0.00 | 0.00 | 0.00 | 47 | 1017.8 |
| 20260905161001 | 29 | 81 | 9.7 | 22.5 | 0.00 | 0.00 | 0.00 | 47 | 1017.8 |
| 20260905160502 | 29 | 50 | 11.3 | 22.5 | 0.00 | 0.00 | 0.00 | 47 | 1017.9 |
| 20260905160000 | 30 | 320 | 11.3 | 24.1 | 0.00 | 0.00 | 0.00 | 47 | 1017.6 |
| 20260905155501 | 30 | 360 | 9.7 | 24.1 | 0.00 | 0.00 | 0.00 | 46 | 1017.5 |
| 20260905155000 | 30 | 25 | 9.7 | 24.1 | 0.00 | 0.00 | 0.00 | 47 | 1017.4 |
| 20260905154501 | 31 | 327 | 8.0 | 24.1 | 0.00 | 0.00 | 0.00 | 47 | 1017.3 |
| 20260905154001 | 31 | 5 | 9.7 | 33.8 | 0.00 | 0.00 | 0.00 | 47 | 1017.1 |
| 20260905153502 | 31 | 344 | 9.7 | 33.8 | 0.00 | 0.00 | 0.00 | 47 | 1017.0 |
| 20260905152502 | 32 | 40 | 12.9 | 33.8 | 0.00 | 0.00 | 0.00 | 47 | 1016.9 |
| 20260905151502 | 32 | 355 | 9.7 | 25.7 | 0.00 | 0.00 | 0.00 | 45 | 1016.8 |
| 20260905151003 | 32 | 5 | 9.7 | 25.7 | 0.00 | 0.00 | 0.00 | 45 | 1016.7 |
| 20260905150501 | 33 | 5 | 12.9 | 33.8 | 0.00 | 0.00 | 0.00 | 44 | 1016.8 |
| 20260905145000 | 33 | 326 | 8.0 | 25.7 | 0.00 | 0.00 | 0.00 | 39 | 1016.8 |
| 20260905144459 | 34 | 337 | 6.4 | 19.3 | 0.00 | 0.00 | 0.00 | 40 | 1016.7 |
| 20260905144002 | 34 | 33 | 8.0 | 20.9 | 0.00 | 0.00 | 0.00 | 39 | 1016.8 |
| 20260905143500 | 34 | 14 | 6.4 | 25.7 | 0.00 | 0.00 | 0.00 | 39 | 1016.7 |
| 20260905142459 | 35 | 355 | 3.2 | 22.5 | 0.00 | 0.00 | 0.00 | 39 | 1016.7 |
| 20260905142000 | 35 | 92 | 4.8 | 16.1 | 0.00 | 0.00 | 0.00 | 39 | 1016.7 |
| 20260905141500 | 35 | 229 | 6.4 | 20.9 | 0.00 | 0.00 | 0.00 | 39 | 1016.7 |
| 20260905140500 | 35 | 347 | 4.8 | 19.3 | 0.00 | 0.00 | 0.00 | 38 | 1016.7 |
| 20260905135500 | 35 | 281 | 4.8 | 17.7 | 0.00 | 0.00 | 0.00 | 38 | 1016.8 |
| 20260905135000 | 35 | 137 | 4.8 | 17.7 | 0.00 | 0.00 | 0.00 | 39 | 1016.7 |
| 20260905134500 | 35 | 331 | 4.8 | 17.7 | 0.00 | 0.00 | 0.00 | 38 | 1016.8 |
| 20260905133500 | 35 | 341 | 4.8 | 19.3 | 0.00 | 0.00 | 0.00 | 39 | 1016.8 |
| 20260905133002 | 35 | 245 | 4.8 | 19.3 | 0.00 | 0.00 | 0.00 | 40 | 1016.8 |
| 20260905132000 | 35 | 5 | 4.8 | 20.9 | 0.00 | 0.00 | 0.00 | 40 | 1016.9 |
| 20260905131500 | 35 | 261 | 4.8 | 12.9 | 0.00 | 0.00 | 0.00 | 40 | 1016.8 |
| 20260905130959 | 35 | 237 | 4.8 | 12.9 | 0.00 | 0.00 | 0.00 | 39 | 1016.9 |
| 20260905130500 | 35 | 198 | 4.8 | 16.1 | 0.00 | 0.00 | 0.00 | 40 | 1017.0 |
| 20260905130000 | 35 | 295 | 4.8 | 16.1 | 0.00 | 0.00 | 0.00 | 40 | 1017.0 |
| 20260905125502 | 35 | 355 | 6.4 | 16.1 | 0.00 | 0.00 | 0.00 | 39 | 1017.1 |
| 20260905125000 | 35 | 319 | 4.8 | 17.7 | 0.00 | 0.00 | 0.00 | 39 | 1017.2 |
| 20260905124000 | 35 | 360 | 4.8 | 19.3 | 0.00 | 0.00 | 0.00 | 40 | 1017.2 |
| 20260905123500 | 35 | 261 | 3.2 | 9.7 | 0.00 | 0.00 | 0.00 | 39 | 1017.3 |
| 20260905122500 | 35 | 309 | 11.3 | 22.5 | 0.00 | 0.00 | 0.00 | 39 | 1017.3 |
| 20260905122000 | 35 | 268 | 6.4 | 22.5 | 0.00 | 0.00 | 0.00 | 38 | 1017.4 |
| 20260905121002 | 35 | 342 | 4.8 | 16.1 | 0.00 | 0.00 | 0.00 | 40 | 1017.5 |
| 20260905120500 | 35 | 263 | 4.8 | 16.1 | 0.00 | 0.00 | 0.00 | 39 | 1017.5 |
| 20260905120002 | 35 | 265 | 3.2 | 12.9 | 0.00 | 0.00 | 0.00 | 38 | 1017.5 |
| 20260905115501 | 35 | 316 | 3.2 | 16.1 | 0.00 | 0.00 | 0.00 | 39 | 1017.6 |
| 20260905115000 | 35 | 275 | 6.4 | 16.1 | 0.00 | 0.00 | 0.00 | 40 | 1017.7 |
| 20260905114500 | 35 | 304 | 8.0 | 19.3 | 0.00 | 0.00 | 0.00 | 40 | 1017.7 |
| 20260905113959 | 35 | 271 | 8.0 | 19.3 | 0.00 | 0.00 | 0.00 | 38 | 1017.7 |
| 20260905113500 | 35 | 269 | 6.4 | 16.1 | 0.00 | 0.00 | 0.00 | 39 | 1017.7 |
| 20260905113000 | 35 | 263 | 4.8 | 11.3 | 0.00 | 0.00 | 0.00 | 39 | 1017.8 |
| 20260905112500 | 35 | 323 | 3.2 | 16.1 | 0.00 | 0.00 | 0.00 | 37 | 1017.8 |
| 20260905112001 | 35 | 277 | 3.2 | 16.1 | 0.00 | 0.00 | 0.00 | 39 | 1017.8 |
| 20260905111500 | 35 | 43 | 3.2 | 11.3 | 0.00 | 0.00 | 0.00 | 39 | 1017.9 |
| 20260905110502 | 35 | 134 | 4.8 | 12.9 | 0.00 | 0.00 | 0.00 | 40 | 1017.9 |
| 20260905110005 | 35 | 274 | 4.8 | 17.7 | 0.00 | 0.00 | 0.00 | 39 | 1017.9 |
| 20260905105502 | 35 | 30 | 6.4 | 17.7 | 0.00 | 0.00 | 0.00 | 38 | 1017.8 |
| 20260905104001 | 34 | 229 | 3.2 | 11.3 | 0.00 | 0.00 | 0.00 | 36 | 1018.0 |
| 20260905103001 | 34 | 316 | 6.4 | 17.7 | 0.00 | 0.00 | 0.00 | 37 | 1017.9 |
| 20260905102502 | 34 | 272 | 6.4 | 17.7 | 0.00 | 0.00 | 0.00 | 37 | 1017.9 |
| 20260905101503 | 34 | 306 | 4.8 | 17.7 | 0.00 | 0.00 | 0.00 | 37 | 1018.1 |
| 20260905100501 | 34 | 155 | 4.8 | 12.9 | 0.00 | 0.00 | 0.00 | 39 | 1018.2 |
| 20260905100004 | 33 | 360 | 3.2 | 12.9 | 0.00 | 0.00 | 0.00 | 38 | 1018.2 |
| 20260905095503 | 33 | 288 | 3.2 | 12.9 | 0.00 | 0.00 | 0.00 | 38 | 1018.2 |
| 20260905095003 | 33 | 319 | 3.2 | 11.3 | 0.00 | 0.00 | 0.00 | 39 | 1018.1 |
| 20260905094502 | 33 | 250 | 3.2 | 9.7 | 0.00 | 0.00 | 0.00 | 41 | 1018.1 |
| 20260905094003 | 33 | 254 | 1.6 | 9.7 | 0.00 | 0.00 | 0.00 | 40 | 1018.1 |
| 20260905093503 | 33 | 16 | 3.2 | 8.0 | 0.00 | 0.00 | 0.00 | 40 | 1018.1 |
| 20260905093002 | 33 | 342 | 4.8 | 11.3 | 0.00 | 0.00 | 0.00 | 40 | 1018.2 |
| 20260905092002 | 32 | 304 | 4.8 | 14.5 | 0.00 | 0.00 | 0.00 | 40 | 1018.1 |
| 20260905091001 | 32 | 289 | 4.8 | 14.5 | 0.00 | 0.00 | 0.00 | 40 | 1018.1 |
| 20260905090503 | 32 | 293 | 3.2 | 14.5 | 0.00 | 0.00 | 0.00 | 43 | 1018.1 |
| 20260905090001 | 32 | 336 | 3.2 | 14.5 | 0.00 | 0.00 | 0.00 | 46 | 1018.1 |
| 20260905085501 | 31 | 360 | 3.2 | 12.9 | 0.00 | 0.00 | 0.00 | 43 | 1018.0 |
| 20260905085002 | 31 | 211 | 4.8 | 16.1 | 0.00 | 0.00 | 0.00 | 46 | 1018.1 |
| 20260905084503 | 31 | 274 | 4.8 | 16.1 | 0.00 | 0.00 | 0.00 | 45 | 1018.1 |
| 20260905084001 | 31 | 281 | 4.8 | 11.3 | 0.00 | 0.00 | 0.00 | 44 | 1018.1 |
| 20260905083501 | 31 | 290 | 4.8 | 11.3 | 0.00 | 0.00 | 0.00 | 45 | 1018.0 |
| 20260905083003 | 31 | 5 | 3.2 | 9.7 | 0.00 | 0.00 | 0.00 | 44 | 1018.0 |
| 20260905082502 | 30 | 257 | 4.8 | 9.7 | 0.00 | 0.00 | 0.00 | 46 | 1017.9 |
| 20260905082005 | 30 | 267 | 4.8 | 12.9 | 0.00 | 0.00 | 0.00 | 47 | 1018.0 |
| 20260905081458 | 30 | 261 | 4.8 | 12.9 | 0.00 | 0.00 | 0.00 | 47 | 1018.0 |
| 20260905081003 | 30 | 252 | 3.2 | 6.4 | 0.00 | 0.00 | 0.00 | 48 | 1017.9 |
| 20260905080502 | 29 | 131 | 3.2 | 6.4 | 0.00 | 0.00 | 0.00 | 50 | 1018.0 |
| 20260905080004 | 28 | 234 | 3.2 | 9.7 | 0.00 | 0.00 | 0.00 | 50 | 1018.0 |
| 20260905075502 | 28 | 271 | 3.2 | 6.4 | 0.00 | 0.00 | 0.00 | 50 | 1018.0 |
| 20260905075002 | 28 | 254 | 3.2 | 8.0 | 0.00 | 0.00 | 0.00 | 51 | 1017.9 |
| 20260905074002 | 27 | 272 | 1.6 | 8.0 | 0.00 | 0.00 | 0.00 | 52 | 1017.9 |
| 20260905073502 | 27 | 221 | 1.6 | 3.2 | 0.00 | 0.00 | 0.00 | 55 | 1017.7 |
| 20260905073001 | 27 | 250 | 1.6 | 4.8 | 0.00 | 0.00 | 0.00 | 56 | 1017.8 |
| 20260905072501 | 26 | 234 | 1.6 | 6.4 | 0.00 | 0.00 | 0.00 | 55 | 1017.8 |
| 20260905071501 | 26 | 248 | 3.2 | 6.4 | 0.00 | 0.00 | 0.00 | 55 | 1017.7 |
| 20260905071004 | 25 | 236 | 4.8 | 8.0 | 0.00 | 0.00 | 0.00 | 57 | 1017.7 |
| 20260905070002 | 25 | 268 | 0.0 | 6.4 | 0.00 | 0.00 | 0.00 | 58 | 1017.6 |
| 20260905065502 | 24 | 133 | 1.6 | 6.4 | 0.00 | 0.00 | 0.00 | 58 | 1017.5 |
| 20260905065001 | 23 | 205 | 1.6 | 6.4 | 0.00 | 0.00 | 0.00 | 59 | 1017.6 |
| 20260905064502 | 23 | 253 | 1.6 | 6.4 | 0.00 | 0.00 | 0.00 | 59 | 1017.5 |
| 20260905064001 | 23 | 250 | 1.6 | 6.4 | 0.00 | 0.00 | 0.00 | 61 | 1017.5 |
| 20260905063000 | 22 | 232 | 0.0 | 4.8 | 0.00 | 0.00 | 0.00 | 62 | 1017.4 |
| 20260905062501 | 22 | 146 | 0.0 | 1.6 | 0.00 | 0.00 | 0.00 | 63 | 1017.5 |
| 20260905062002 | 22 | 146 | 0.0 | 4.8 | 0.00 | 0.00 | 0.00 | 62 | 1017.4 |
| 20260905061002 | 22 | 140 | 1.6 | 6.4 | 0.00 | 0.00 | 0.00 | 62 | 1017.4 |
| 20260905060500 | 22 | 141 | 3.2 | 8.0 | 0.00 | 0.00 | 0.00 | 61 | 1017.4 |
| 20260905055959 | 22 | 148 | 3.2 | 8.0 | 0.00 | 0.00 | 0.00 | 62 | 1017.3 |
| 20260905055500 | 22 | 143 | 1.6 | 9.7 | 0.00 | 0.00 | 0.00 | 61 | 1017.3 |
| 20260905054501 | 22 | 152 | 3.2 | 9.7 | 0.00 | 0.00 | 0.00 | 62 | 1017.3 |
| 20260905054001 | 21 | 151 | 4.8 | 9.7 | 0.00 | 0.00 | 0.00 | 62 | 1017.3 |
| 20260905053502 | 21 | 134 | 4.8 | 11.3 | 0.00 | 0.00 | 0.00 | 62 | 1017.3 |
| 20260905053001 | 21 | 132 | 4.8 | 11.3 | 0.00 | 0.00 | 0.00 | 62 | 1017.3 |
| 20260905052502 | 21 | 157 | 4.8 | 11.3 | 0.00 | 0.00 | 0.00 | 62 | 1017.2 |
| 20260905051959 | 21 | 181 | 4.8 | 9.7 | 0.00 | 0.00 | 0.00 | 63 | 1017.4 |
| 20260905051500 | 21 | 158 | 4.8 | 11.3 | 0.00 | 0.00 | 0.00 | 63 | 1017.3 |
| 20260905051000 | 21 | 159 | 3.2 | 8.0 | 0.00 | 0.00 | 0.00 | 63 | 1017.3 |
| 20260905050500 | 21 | 149 | 3.2 | 9.7 | 0.00 | 0.00 | 0.00 | 63 | 1017.4 |
| 20260905050000 | 21 | 175 | 4.8 | 9.7 | 0.00 | 0.00 | 0.00 | 62 | 1017.4 |
| 20260905045500 | 21 | 142 | 4.8 | 9.7 | 0.00 | 0.00 | 0.00 | 63 | 1017.4 |
| 20260905045000 | 21 | 171 | 4.8 | 11.3 | 0.00 | 0.00 | 0.00 | 63 | 1017.4 |
| 20260905043500 | 21 | 164 | 0.0 | 6.4 | 0.00 | 0.00 | 0.00 | 63 | 1017.4 |
| 20260905043002 | 21 | 142 | 0.0 | 3.2 | 0.00 | 0.00 | 0.00 | 63 | 1017.4 |
| 20260905042459 | 21 | 128 | 0.0 | 3.2 | 0.00 | 0.00 | 0.00 | 63 | 1017.4 |
| 20260905042001 | 21 | 138 | 1.6 | 4.8 | 0.00 | 0.00 | 0.00 | 63 | 1017.3 |
| 20260905041459 | 21 | 150 | 3.2 | 8.0 | 0.00 | 0.00 | 0.00 | 62 | 1017.4 |
| 20260905041001 | 21 | 159 | 4.8 | 8.0 | 0.00 | 0.00 | 0.00 | 62 | 1017.4 |
| 20260905040000 | 21 | 149 | 6.4 | 11.3 | 0.00 | 0.00 | 0.00 | 62 | 1017.4 |
| 20260905035459 | 21 | 144 | 6.4 | 11.3 | 0.00 | 0.00 | 0.00 | 62 | 1017.5 |
| 20260905035002 | 21 | 146 | 6.4 | 11.3 | 0.00 | 0.00 | 0.00 | 62 | 1017.4 |
| 20260905034459 | 21 | 126 | 6.4 | 11.3 | 0.00 | 0.00 | 0.00 | 62 | 1017.4 |
| 20260905033959 | 21 | 123 | 6.4 | 8.0 | 0.00 | 0.00 | 0.00 | 62 | 1017.5 |
| 20260905033459 | 21 | 138 | 6.4 | 8.0 | 0.00 | 0.00 | 0.00 | 62 | 1017.5 |
| 20260905032959 | 21 | 146 | 6.4 | 9.7 | 0.00 | 0.00 | 0.00 | 62 | 1017.5 |
| 20260905032459 | 21 | 150 | 4.8 | 9.7 | 0.00 | 0.00 | 0.00 | 62 | 1017.5 |
| 20260905032000 | 21 | 168 | 6.4 | 11.3 | 0.00 | 0.00 | 0.00 | 62 | 1017.5 |
| 20260905031500 | 21 | 177 | 4.8 | 11.3 | 0.00 | 0.00 | 0.00 | 62 | 1017.6 |
| 20260905031000 | 21 | 138 | 6.4 | 9.7 | 0.00 | 0.00 | 0.00 | 62 | 1017.6 |
| 20260905030459 | 21 | 138 | 6.4 | 11.3 | 0.00 | 0.00 | 0.00 | 62 | 1017.6 |
| 20260905025959 | 21 | 138 | 6.4 | 11.3 | 0.00 | 0.00 | 0.00 | 62 | 1017.6 |
| 20260905025500 | 21 | 163 | 6.4 | 11.3 | 0.00 | 0.00 | 0.00 | 62 | 1017.6 |
| 20260905025000 | 21 | 111 | 6.4 | 12.9 | 0.00 | 0.00 | 0.00 | 62 | 1017.6 |
| 20260905024459 | 21 | 161 | 6.4 | 12.9 | 0.00 | 0.00 | 0.00 | 62 | 1017.7 |